| time (UTC) | temp F | wind direction | speed knots | gust knots | rain 1hr in | rain 24hr in | rain mn in | humidity % | barometer mb |
| 20260502152209 | 54 | 293 | 0.9 | 3.5 | 0.00 | 0.04 | 0.07 | 74 | 1000.1 |
| 20260502151434 | 54 | 257 | 0.9 | 3.5 | 0.00 | 0.04 | 0.07 | 75 | 1000.2 |
| 20260502150933 | 53 | 135 | 0.9 | 3.5 | 0.00 | 0.04 | 0.07 | 75 | 1000.2 |
| 20260502150428 | 53 | 292 | 1.7 | 5.2 | 0.00 | 0.04 | 0.07 | 76 | 1000.3 |
| 20260502130410 | 50 | 25 | 1.7 | 4.3 | 0.00 | 0.04 | 0.07 | 84 | 1000.2 |
| 20260502123641 | 49 | 20 | 0.9 | 2.6 | 0.00 | 0.04 | 0.07 | 95 | 1000.5 |
| 20260502122911 | 48 | 0 | 0.9 | 1.7 | 0.00 | 0.04 | 0.07 | 95 | 1000.6 |
| 20260502122411 | 48 | 89 | 0.0 | 1.7 | 0.00 | 0.04 | 0.07 | 95 | 1000.8 |
| 20260502121911 | 48 | 99 | 0.9 | 1.7 | 0.01 | 0.04 | 0.07 | 95 | 1000.8 |
| 20260502121411 | 48 | 0 | 0.9 | 1.7 | 0.03 | 0.04 | 0.07 | 95 | 1000.8 |
| 20260502120911 | 48 | 102 | 0.9 | 1.7 | 0.03 | 0.04 | 0.07 | 96 | 1000.8 |
| 20260502120411 | 47 | 0 | 0.0 | 1.7 | 0.04 | 0.04 | 0.07 | 96 | 1000.9 |
| 20260502115857 | 47 | 109 | 0.0 | 1.7 | 0.04 | 0.04 | 0.07 | 96 | 1000.9 |
| 20260502115358 | 47 | 119 | 0.0 | 1.7 | 0.04 | 0.04 | 0.07 | 95 | 1000.9 |
| 20260502114857 | 47 | 0 | 0.9 | 2.6 | 0.04 | 0.04 | 0.07 | 95 | 1000.8 |
| 20260502114614 | 47 | 59 | 1.7 | 3.5 | 0.04 | 0.04 | 0.07 | 95 | 1000.7 |
| 20260502114112 | 47 | 73 | 1.7 | 3.5 | 0.04 | 0.04 | 0.07 | 95 | 1000.6 |
| 20260502113343 | 47 | 129 | 0.9 | 2.6 | 0.04 | 0.04 | 0.07 | 95 | 1000.9 |
| 20260502112843 | 47 | 138 | 2.6 | 5.2 | 0.04 | 0.04 | 0.07 | 95 | 1001.1 |
| 20260502112333 | 47 | 34 | 2.6 | 5.2 | 0.04 | 0.04 | 0.07 | 94 | 1001.0 |
| 20260502111833 | 47 | 12 | 1.7 | 3.5 | 0.03 | 0.03 | 0.06 | 94 | 1000.9 |
| 20260502111333 | 47 | 20 | 0.9 | 2.6 | 0.01 | 0.01 | 0.05 | 95 | 1001.1 |
| 20260502110833 | 47 | 286 | 0.0 | 2.6 | 0.01 | 0.01 | 0.04 | 94 | 1001.3 |
| 20260502110334 | 47 | 0 | 0.0 | 0.9 | 0.00 | 0.00 | 0.04 | 94 | 1001.2 |
| 20260502105833 | 47 | 0 | 0.0 | 1.7 | 0.00 | 0.00 | 0.04 | 95 | 1001.0 |
| 20260502105604 | 47 | 0 | 0.9 | 1.7 | 0.00 | 0.00 | 0.04 | 95 | 1001.0 |
| 20260502104831 | 47 | 238 | 0.9 | 3.5 | 0.00 | 0.00 | 0.04 | 94 | 1000.6 |
| 20260502104601 | 47 | 58 | 1.7 | 3.5 | 0.00 | 0.00 | 0.04 | 94 | 1000.2 |
| 20260502104058 | 47 | 31 | 2.6 | 4.3 | 0.00 | 0.00 | 0.04 | 94 | 1000.2 |
| 20260502103329 | 47 | 45 | 3.5 | 5.2 | 0.00 | 0.00 | 0.04 | 94 | 1000.0 |
| 20260502103059 | 47 | 11 | 1.7 | 5.2 | 0.00 | 0.00 | 0.04 | 93 | 1000.1 |
| 20260502102330 | 47 | 351 | 0.0 | 1.7 | 0.00 | 0.00 | 0.04 | 92 | 1000.3 |
| 20260502102058 | 47 | 0 | 0.0 | 1.7 | 0.00 | 0.00 | 0.04 | 92 | 1000.3 |
| 20260502101327 | 47 | 0 | 0.0 | 1.7 | 0.00 | 0.00 | 0.04 | 92 | 1000.3 |
| 20260502100825 | 47 | 44 | 0.0 | 1.7 | 0.00 | 0.00 | 0.04 | 92 | 1000.3 |
| 20260502100328 | 47 | 0 | 0.0 | 0.0 | 0.00 | 0.00 | 0.04 | 92 | 1000.4 |
| 20260502091354 | 48 | 0 | 0.0 | 1.7 | 0.00 | 0.00 | 0.00 | 87 | 1000.0 |
| 20260502090854 | 48 | 0 | 0.0 | 1.7 | 0.00 | 0.00 | 0.00 | 87 | 999.9 |
| 20260502090354 | 48 | 0 | 0.0 | 1.7 | 0.00 | 0.00 | 0.00 | 87 | 999.8 |
| 20260502071344 | 50 | 71 | 0.9 | 2.6 | 0.00 | 0.00 | 0.00 | 79 | 999.9 |
| 20260502070844 | 50 | 98 | 0.9 | 3.5 | 0.00 | 0.00 | 0.00 | 78 | 1000.0 |
| 20260502070343 | 50 | 0 | 0.9 | 3.5 | 0.00 | 0.00 | 0.00 | 77 | 1000.2 |
| 20260502065843 | 50 | 0 | 0.0 | 1.7 | 0.00 | 0.00 | 0.00 | 77 | 1000.1 |
| 20260502065341 | 50 | 109 | 0.0 | 1.7 | 0.00 | 0.00 | 0.00 | 77 | 999.9 |
| 20260502064840 | 50 | 0 | 0.9 | 1.7 | 0.00 | 0.00 | 0.00 | 77 | 999.9 |
| 20260502064338 | 51 | 95 | 0.9 | 1.7 | 0.00 | 0.00 | 0.00 | 77 | 1000.0 |
| 20260502063839 | 51 | 198 | 0.9 | 1.7 | 0.00 | 0.00 | 0.00 | 76 | 1000.1 |
| 20260502063338 | 51 | 247 | 0.0 | 1.7 | 0.00 | 0.00 | 0.00 | 76 | 1000.0 |
| 20260502062839 | 51 | 0 | 0.9 | 1.7 | 0.00 | 0.00 | 0.00 | 76 | 1000.0 |
| 20260502062334 | 51 | 0 | 0.9 | 1.7 | 0.00 | 0.00 | 0.00 | 77 | 1000.0 |
| 20260502062106 | 51 | 188 | 0.0 | 1.7 | 0.00 | 0.00 | 0.00 | 77 | 1000.2 |
| 20260502061954 | 51 | 311 | 0.0 | 1.7 | 0.00 | 0.00 | 0.00 | 76 | 1000.2 |
| 20260502060836 | 51 | 191 | 0.0 | 1.7 | 0.00 | 0.00 | 0.00 | 77 | 1000.1 |
| 20260502060336 | 51 | 0 | 0.0 | 1.7 | 0.00 | 0.00 | 0.00 | 77 | 1000.1 |
| 20260502060107 | 51 | 265 | 0.0 | 1.7 | 0.00 | 0.00 | 0.00 | 75 | 1000.1 |
| 20260502055336 | 51 | 0 | 0.0 | 1.7 | 0.00 | 0.00 | 0.00 | 75 | 1000.1 |
| 20260502054832 | 51 | 346 | 0.0 | 1.7 | 0.00 | 0.00 | 0.00 | 74 | 1000.0 |
| 20260502054334 | 51 | 0 | 0.0 | 1.7 | 0.00 | 0.00 | 0.00 | 75 | 1000.0 |
| 20260502053832 | 51 | 0 | 0.0 | 1.7 | 0.00 | 0.00 | 0.00 | 75 | 1000.0 |
| 20260502053605 | 51 | 88 | 0.0 | 1.7 | 0.00 | 0.00 | 0.00 | 74 | 1000.1 |
| 20260502052832 | 51 | 0 | 0.0 | 1.7 | 0.00 | 0.00 | 0.00 | 74 | 1000.2 |
| 20260502052333 | 51 | 0 | 0.0 | 1.7 | 0.00 | 0.00 | 0.00 | 74 | 1000.2 |
| 20260502052102 | 51 | 308 | 0.0 | 1.7 | 0.00 | 0.00 | 0.00 | 74 | 1000.2 |
| 20260502051332 | 51 | 0 | 0.9 | 2.6 | 0.00 | 0.00 | 0.00 | 74 | 1000.1 |
| 20260502050831 | 51 | 152 | 0.9 | 2.6 | 0.00 | 0.00 | 0.00 | 73 | 1000.2 |
| 20260502050332 | 51 | 149 | 0.9 | 1.7 | 0.00 | 0.00 | 0.00 | 74 | 1000.3 |
| 20260502045842 | 51 | 0 | 0.9 | 3.5 | 0.00 | 0.00 | 0.00 | 73 | 1000.2 |
| 20260502045830 | 51 | 306 | 0.9 | 1.7 | 0.00 | 0.00 | 0.00 | 74 | 1000.3 |
| 20260502045332 | 51 | 0 | 0.9 | 3.5 | 0.00 | 0.00 | 0.00 | 74 | 1000.2 |
| 20260502044332 | 51 | 133 | 0.9 | 2.6 | 0.00 | 0.00 | 0.00 | 73 | 1000.3 |
| 20260502043832 | 51 | 301 | 0.9 | 2.6 | 0.00 | 0.00 | 0.00 | 74 | 1000.3 |
| 20260502043333 | 51 | 287 | 0.9 | 2.6 | 0.00 | 0.00 | 0.00 | 73 | 1000.2 |
| 20260502042831 | 51 | 178 | 0.9 | 2.6 | 0.00 | 0.00 | 0.00 | 74 | 1000.2 |
| 20260502042333 | 51 | 137 | 0.9 | 2.6 | 0.00 | 0.00 | 0.00 | 74 | 1000.2 |
| 20260502041832 | 51 | 146 | 0.9 | 2.6 | 0.00 | 0.00 | 0.00 | 73 | 1000.2 |
| 20260502041333 | 51 | 116 | 0.9 | 1.7 | 0.00 | 0.00 | 0.00 | 74 | 1000.2 |
| 20260502040831 | 51 | 0 | 0.9 | 1.7 | 0.00 | 0.00 | 0.00 | 73 | 1000.2 |
| 20260502040334 | 51 | 150 | 0.9 | 1.7 | 0.00 | 0.00 | 0.00 | 73 | 1000.2 |
| 20260502035538 | 51 | 131 | 0.9 | 2.6 | 0.00 | 0.00 | 0.00 | 73 | 1000.2 |
| 20260502035038 | 51 | 145 | 0.9 | 2.6 | 0.00 | 0.00 | 0.00 | 73 | 1000.3 |
| 20260502034539 | 51 | 128 | 0.9 | 2.6 | 0.00 | 0.00 | 0.00 | 73 | 1000.2 |
| 20260502034034 | 51 | 308 | 0.9 | 2.6 | 0.00 | 0.00 | 0.00 | 73 | 1000.3 |
| 20260502033535 | 51 | 198 | 0.9 | 2.6 | 0.00 | 0.00 | 0.00 | 73 | 1000.4 |
| 20260502033032 | 51 | 150 | 0.9 | 2.6 | 0.00 | 0.00 | 0.00 | 72 | 1000.4 |
| 20260502032533 | 51 | 296 | 0.9 | 2.6 | 0.00 | 0.00 | 0.00 | 73 | 1000.3 |
| 20260502032033 | 51 | 207 | 0.9 | 2.6 | 0.00 | 0.00 | 0.00 | 73 | 1000.4 |
| 20260502031533 | 51 | 207 | 0.9 | 2.6 | 0.00 | 0.00 | 0.00 | 73 | 1000.4 |
| 20260502031033 | 51 | 182 | 0.9 | 2.6 | 0.00 | 0.00 | 0.00 | 72 | 1000.4 |
| 20260502030533 | 51 | 141 | 0.9 | 2.6 | 0.00 | 0.00 | 0.00 | 72 | 1000.4 |
| 20260502030040 | 52 | 185 | 0.9 | 2.6 | 0.00 | 0.00 | 0.00 | 72 | 1000.4 |
| 20260502030033 | 51 | 147 | 0.9 | 2.6 | 0.00 | 0.00 | 0.00 | 72 | 1000.4 |
| 20260502025306 | 52 | 274 | 0.9 | 3.5 | 0.00 | 0.00 | 0.00 | 71 | 1000.4 |
| 20260502024534 | 52 | 132 | 0.9 | 3.5 | 0.00 | 0.00 | 0.00 | 70 | 1000.4 |
| 20260502024304 | 52 | 168 | 0.9 | 2.6 | 0.00 | 0.00 | 0.00 | 69 | 1000.3 |
| 20260502023534 | 53 | 180 | 0.9 | 3.5 | 0.00 | 0.00 | 0.00 | 68 | 1000.3 |
| 20260502023034 | 53 | 131 | 1.7 | 3.5 | 0.00 | 0.00 | 0.00 | 67 | 1000.3 |
| 20260502022534 | 53 | 181 | 1.7 | 3.5 | 0.00 | 0.00 | 0.00 | 67 | 1000.3 |
| 20260502022306 | 53 | 149 | 1.7 | 3.5 | 0.00 | 0.00 | 0.00 | 66 | 1000.3 |
| 20260502021534 | 53 | 180 | 1.7 | 4.3 | 0.00 | 0.00 | 0.00 | 65 | 1000.3 |
| 20260502021034 | 54 | 165 | 1.7 | 4.3 | 0.00 | 0.00 | 0.00 | 65 | 1000.3 |
| 20260502020534 | 54 | 209 | 1.7 | 4.3 | 0.00 | 0.00 | 0.00 | 65 | 1000.4 |
| 20260502020306 | 54 | 318 | 2.6 | 5.2 | 0.00 | 0.00 | 0.00 | 64 | 1000.4 |
| 20260502015534 | 54 | 172 | 2.6 | 5.2 | 0.00 | 0.00 | 0.00 | 63 | 1000.3 |
| 20260502015031 | 54 | 148 | 2.6 | 5.2 | 0.00 | 0.00 | 0.00 | 62 | 1000.2 |
| 20260502014532 | 55 | 269 | 1.7 | 4.3 | 0.00 | 0.00 | 0.00 | 62 | 1000.2 |
| 20260502014527 | 55 | 227 | 1.7 | 4.3 | 0.00 | 0.00 | 0.00 | 60 | 1000.1 |
| 20260502013525 | 55 | 162 | 1.7 | 4.3 | 0.00 | 0.00 | 0.00 | 59 | 1000.1 |
| 20260502013024 | 55 | 201 | 1.7 | 3.5 | 0.00 | 0.00 | 0.00 | 58 | 1000.0 |
| 20260502012532 | 55 | 212 | 1.7 | 3.5 | 0.00 | 0.00 | 0.00 | 55 | 1000.0 |
| 20260502012525 | 55 | 205 | 1.7 | 3.5 | 0.00 | 0.00 | 0.00 | 57 | 1000.0 |
| 20260502011525 | 55 | 307 | 1.7 | 4.3 | 0.00 | 0.00 | 0.00 | 54 | 999.9 |
| 20260502011255 | 56 | 0 | 1.7 | 4.3 | 0.00 | 0.00 | 0.00 | 52 | 999.8 |
| 20260502010524 | 56 | 229 | 1.7 | 4.3 | 0.00 | 0.00 | 0.00 | 51 | 999.7 |
| 20260502010025 | 56 | 164 | 1.7 | 6.1 | 0.00 | 0.00 | 0.00 | 50 | 999.6 |
| 20260502005757 | 56 | 147 | 1.7 | 6.1 | 0.00 | 0.00 | 0.00 | 48 | 999.6 |
| 20260502005026 | 56 | 158 | 0.9 | 2.6 | 0.00 | 0.00 | 0.00 | 49 | 999.5 |
| 20260502004524 | 56 | 209 | 0.9 | 3.5 | 0.00 | 0.00 | 0.00 | 49 | 999.4 |
| 20260502004024 | 56 | 208 | 1.7 | 3.5 | 0.00 | 0.00 | 0.00 | 48 | 999.4 |
| 20260502003531 | 56 | 139 | 0.9 | 2.6 | 0.00 | 0.00 | 0.00 | 51 | 999.3 |
| 20260502003524 | 56 | 212 | 0.9 | 3.5 | 0.00 | 0.00 | 0.00 | 49 | 999.3 |
| 20260502002750 | 55 | 215 | 1.7 | 5.2 | 0.00 | 0.00 | 0.00 | 49 | 999.2 |
| 20260502002019 | 55 | 0 | 1.7 | 5.2 | 0.00 | 0.00 | 0.00 | 57 | 999.2 |
| 20260502001520 | 56 | 215 | 0.9 | 3.5 | 0.00 | 0.00 | 0.00 | 44 | 999.0 |
| 20260502001020 | 56 | 0 | 0.9 | 1.7 | 0.00 | 0.00 | 0.00 | 43 | 998.8 |
| 20260502000520 | 56 | 31 | 0.9 | 1.7 | 0.00 | 0.00 | 0.00 | 46 | 998.7 |
| 20260502000020 | 56 | 345 | 0.0 | 1.7 | 0.00 | 0.00 | 0.00 | 43 | 998.7 |
| 20260501235520 | 57 | 30 | 0.0 | 1.7 | 0.00 | 0.00 | 0.00 | 44 | 998.7 |
| 20260501235020 | 57 | 0 | 0.0 | 0.9 | 0.00 | 0.00 | 0.00 | 41 | 998.6 |
| 20260501234520 | 58 | 0 | 0.0 | 1.7 | 0.00 | 0.00 | 0.00 | 40 | 998.5 |
| 20260501234019 | 58 | 15 | 0.0 | 1.7 | 0.00 | 0.00 | 0.00 | 45 | 998.5 |
| 20260501233520 | 59 | 0 | 0.0 | 2.6 | 0.00 | 0.00 | 0.00 | 42 | 998.4 |
| 20260501233020 | 60 | 0 | 0.0 | 2.6 | 0.00 | 0.00 | 0.00 | 38 | 998.3 |
| 20260501232519 | 60 | 203 | 0.9 | 2.6 | 0.00 | 0.00 | 0.00 | 38 | 998.3 |
| 20260501232018 | 61 | 0 | 0.9 | 2.6 | 0.00 | 0.00 | 0.00 | 36 | 998.3 |
| 20260501231519 | 62 | 0 | 0.0 | 2.6 | 0.00 | 0.00 | 0.00 | 36 | 998.2 |
| 20260501231019 | 62 | 0 | 0.9 | 3.5 | 0.00 | 0.00 | 0.00 | 36 | 998.3 |
| 20260501230519 | 62 | 277 | 0.9 | 3.5 | 0.00 | 0.00 | 0.00 | 40 | 998.2 |
| 20260501230019 | 63 | 60 | 0.0 | 1.7 | 0.00 | 0.00 | 0.00 | 36 | 998.2 |
| 20260501225519 | 63 | 0 | 0.0 | 1.7 | 0.00 | 0.00 | 0.00 | 34 | 998.1 |
| 20260501225016 | 63 | 202 | 0.0 | 1.7 | 0.00 | 0.00 | 0.00 | 37 | 998.0 |
| 20260501224513 | 63 | 222 | 0.0 | 1.7 | 0.00 | 0.00 | 0.00 | 34 | 997.9 |
| 20260501224013 | 62 | 0 | 0.9 | 5.2 | 0.00 | 0.00 | 0.00 | 35 | 997.9 |
| 20260501223744 | 62 | 0 | 1.7 | 5.2 | 0.00 | 0.00 | 0.00 | 36 | 997.9 |
| 20260501223010 | 62 | 315 | 0.9 | 5.2 | 0.00 | 0.00 | 0.00 | 35 | 997.9 |
| 20260501222748 | 62 | 0 | 1.7 | 4.3 | 0.00 | 0.00 | 0.00 | 36 | 997.9 |
| 20260501222509 | 62 | 347 | 0.9 | 3.5 | 0.00 | 0.00 | 0.00 | 35 | 997.9 |
| 20260501221510 | 62 | 315 | 1.7 | 5.2 | 0.00 | 0.00 | 0.00 | 36 | 997.9 |
| 20260501221010 | 62 | 271 | 2.6 | 7.0 | 0.00 | 0.00 | 0.00 | 36 | 997.9 |
| 20260501220517 | 62 | 1 | 2.6 | 7.0 | 0.00 | 0.00 | 0.00 | 37 | 998.0 |
| 20260501220511 | 62 | 316 | 1.7 | 7.0 | 0.00 | 0.00 | 0.00 | 34 | 997.9 |
| 20260501215510 | 62 | 27 | 2.6 | 7.0 | 0.00 | 0.00 | 0.00 | 34 | 998.0 |
| 20260501215009 | 62 | 295 | 1.7 | 4.3 | 0.00 | 0.00 | 0.00 | 35 | 998.1 |
| 20260501214504 | 62 | 155 | 1.7 | 4.3 | 0.00 | 0.00 | 0.00 | 35 | 998.0 |
| 20260501214004 | 62 | 291 | 1.7 | 3.5 | 0.00 | 0.00 | 0.00 | 34 | 998.0 |
| 20260501213504 | 62 | 287 | 1.7 | 5.2 | 0.00 | 0.00 | 0.00 | 39 | 998.0 |
| 20260501213004 | 61 | 300 | 2.6 | 7.8 | 0.00 | 0.00 | 0.00 | 35 | 998.0 |
| 20260501212505 | 61 | 325 | 2.6 | 7.8 | 0.00 | 0.00 | 0.00 | 40 | 998.0 |
| 20260501212005 | 62 | 47 | 2.6 | 7.8 | 0.00 | 0.00 | 0.00 | 36 | 997.9 |
| 20260501211505 | 62 | 317 | 1.7 | 5.2 | 0.00 | 0.00 | 0.00 | 34 | 997.9 |
| 20260501211005 | 61 | 14 | 1.7 | 4.3 | 0.00 | 0.00 | 0.00 | 38 | 997.9 |
| 20260501210505 | 61 | 48 | 1.7 | 5.2 | 0.00 | 0.00 | 0.00 | 36 | 997.9 |
| 20260501210005 | 61 | 223 | 3.5 | 7.8 | 0.00 | 0.00 | 0.00 | 35 | 997.9 |
| 20260501205505 | 61 | 17 | 4.3 | 9.6 | 0.00 | 0.00 | 0.00 | 37 | 997.9 |
| 20260501205005 | 61 | 0 | 5.2 | 11.3 | 0.00 | 0.00 | 0.00 | 34 | 997.8 |
| 20260501204735 | 61 | 327 | 4.3 | 11.3 | 0.00 | 0.00 | 0.00 | 36 | 997.9 |
| 20260501204234 | 61 | 319 | 2.6 | 7.8 | 0.00 | 0.00 | 0.00 | 36 | 997.9 |
| 20260501203504 | 61 | 283 | 2.6 | 7.8 | 0.00 | 0.00 | 0.00 | 35 | 997.9 |
| 20260501203004 | 61 | 305 | 1.7 | 6.1 | 0.00 | 0.00 | 0.00 | 36 | 997.9 |
| 20260501202502 | 60 | 331 | 1.7 | 6.1 | 0.00 | 0.00 | 0.00 | 35 | 997.9 |
| 20260501202003 | 61 | 321 | 2.6 | 7.0 | 0.00 | 0.00 | 0.00 | 36 | 997.8 |
| 20260501201503 | 60 | 317 | 3.5 | 7.8 | 0.00 | 0.00 | 0.00 | 35 | 997.8 |
| 20260501201003 | 60 | 347 | 4.3 | 9.6 | 0.00 | 0.00 | 0.00 | 38 | 997.9 |
| 20260501200503 | 60 | 356 | 5.2 | 11.3 | 0.00 | 0.00 | 0.00 | 36 | 998.0 |
| 20260501200003 | 60 | 317 | 3.5 | 11.3 | 0.00 | 0.00 | 0.00 | 37 | 997.9 |
| 20260501195500 | 60 | 321 | 3.5 | 8.7 | 0.00 | 0.00 | 0.00 | 35 | 997.8 |
| 20260501195000 | 60 | 10 | 4.3 | 10.4 | 0.00 | 0.00 | 0.00 | 38 | 997.8 |
| 20260501194459 | 60 | 273 | 4.3 | 10.4 | 0.00 | 0.00 | 0.00 | 38 | 997.8 |
| 20260501193958 | 60 | 268 | 5.2 | 10.4 | 0.00 | 0.00 | 0.00 | 37 | 997.9 |
| 20260501193459 | 60 | 2 | 4.3 | 10.4 | 0.00 | 0.00 | 0.00 | 38 | 997.9 |
| 20260501192959 | 60 | 322 | 3.5 | 10.4 | 0.00 | 0.00 | 0.00 | 35 | 998.0 |
| 20260501192730 | 60 | 339 | 2.6 | 10.4 | 0.00 | 0.00 | 0.00 | 36 | 998.2 |
| 20260501191958 | 60 | 297 | 3.5 | 12.2 | 0.00 | 0.00 | 0.00 | 39 | 998.2 |
| 20260501191731 | 60 | 349 | 4.3 | 12.2 | 0.00 | 0.00 | 0.00 | 41 | 998.1 |
| 20260501190959 | 59 | 337 | 6.1 | 12.2 | 0.00 | 0.00 | 0.00 | 36 | 998.3 |
| 20260501190730 | 59 | 311 | 5.2 | 9.6 | 0.00 | 0.00 | 0.00 | 37 | 998.4 |
| 20260501185959 | 60 | 338 | 3.5 | 8.7 | 0.00 | 0.00 | 0.00 | 36 | 998.4 |
| 20260501185730 | 60 | 169 | 3.5 | 8.7 | 0.00 | 0.00 | 0.00 | 37 | 998.5 |
| 20260501184956 | 60 | 355 | 2.6 | 7.8 | 0.00 | 0.00 | 0.00 | 39 | 998.5 |
| 20260501184455 | 60 | 231 | 3.5 | 8.7 | 0.00 | 0.00 | 0.00 | 36 | 998.5 |
| 20260501183956 | 60 | 319 | 3.5 | 8.7 | 0.00 | 0.00 | 0.00 | 37 | 998.5 |
| 20260501183456 | 60 | 296 | 3.5 | 7.8 | 0.00 | 0.00 | 0.00 | 38 | 998.5 |
| 20260501183226 | 59 | 305 | 3.5 | 10.4 | 0.00 | 0.00 | 0.00 | 36 | 998.5 |
| 20260501182727 | 60 | 10 | 3.5 | 10.4 | 0.00 | 0.00 | 0.00 | 37 | 998.5 |
| 20260501181957 | 60 | 319 | 3.5 | 9.6 | 0.00 | 0.00 | 0.00 | 39 | 998.7 |
| 20260501181455 | 59 | 286 | 3.5 | 9.6 | 0.00 | 0.00 | 0.00 | 37 | 998.6 |
| 20260501180956 | 59 | 347 | 4.3 | 9.6 | 0.00 | 0.00 | 0.00 | 37 | 998.7 |
| 20260501180727 | 58 | 342 | 5.2 | 9.6 | 0.00 | 0.00 | 0.00 | 38 | 998.7 |
| 20260501175956 | 58 | 339 | 5.2 | 10.4 | 0.00 | 0.00 | 0.00 | 38 | 998.6 |
| 20260501175455 | 58 | 304 | 6.1 | 11.3 | 0.00 | 0.00 | 0.00 | 36 | 998.6 |
| 20260501174954 | 58 | 323 | 6.1 | 11.3 | 0.00 | 0.00 | 0.00 | 38 | 998.7 |
| 20260501174455 | 58 | 334 | 5.2 | 9.6 | 0.00 | 0.00 | 0.00 | 38 | 998.7 |
| 20260501173954 | 58 | 301 | 3.5 | 9.6 | 0.00 | 0.00 | 0.00 | 40 | 998.7 |
| 20260501173455 | 58 | 149 | 3.5 | 10.4 | 0.00 | 0.00 | 0.00 | 38 | 998.7 |
| 20260501172954 | 58 | 317 | 4.3 | 10.4 | 0.00 | 0.00 | 0.00 | 39 | 998.7 |
| 20260501172455 | 58 | 291 | 3.5 | 7.8 | 0.00 | 0.00 | 0.00 | 40 | 998.8 |
| 20260501171955 | 58 | 300 | 2.6 | 7.8 | 0.00 | 0.00 | 0.00 | 40 | 998.9 |
| 20260501171455 | 57 | 243 | 3.5 | 10.4 | 0.00 | 0.00 | 0.00 | 41 | 998.9 |
| 20260501170956 | 56 | 322 | 4.3 | 10.4 | 0.00 | 0.00 | 0.00 | 44 | 998.9 |
| 20260501170455 | 56 | 32 | 4.3 | 9.6 | 0.00 | 0.00 | 0.00 | 43 | 998.9 |
| 20260501170226 | 56 | 345 | 5.2 | 11.3 | 0.00 | 0.00 | 0.00 | 43 | 999.0 |
| 20260501165456 | 57 | 2 | 4.3 | 11.3 | 0.00 | 0.00 | 0.00 | 45 | 999.0 |
| 20260501164952 | 57 | 231 | 3.5 | 7.8 | 0.00 | 0.00 | 0.00 | 45 | 999.0 |
| 20260501164450 | 56 | 320 | 4.3 | 12.2 | 0.00 | 0.00 | 0.00 | 48 | 999.0 |
| 20260501163949 | 56 | 0 | 5.2 | 12.2 | 0.00 | 0.00 | 0.00 | 44 | 999.1 |
| 20260501163446 | 57 | 11 | 3.5 | 10.4 | 0.00 | 0.00 | 0.00 | 49 | 999.2 |
| 20260501162946 | 56 | 1 | 3.5 | 9.6 | 0.00 | 0.00 | 0.00 | 45 | 999.2 |
| 20260501162445 | 56 | 38 | 4.3 | 9.6 | 0.00 | 0.00 | 0.00 | 45 | 999.2 |
| 20260501161945 | 56 | 317 | 3.5 | 9.6 | 0.00 | 0.00 | 0.00 | 48 | 999.3 |
| 20260501161717 | 56 | 313 | 4.3 | 9.6 | 0.00 | 0.00 | 0.00 | 46 | 999.3 |
| 20260501161217 | 56 | 289 | 6.1 | 11.3 | 0.00 | 0.00 | 0.00 | 47 | 999.3 |
| 20260501160447 | 56 | 324 | 5.2 | 11.3 | 0.00 | 0.00 | 0.00 | 49 | 999.4 |
| 20260501155944 | 56 | 319 | 3.5 | 8.7 | 0.00 | 0.00 | 0.00 | 49 | 999.5 |
| 20260501155445 | 55 | 319 | 2.6 | 7.0 | 0.00 | 0.00 | 0.00 | 49 | 999.5 |
| 20260501154945 | 55 | 307 | 1.7 | 6.1 | 0.00 | 0.00 | 0.00 | 48 | 999.6 |
| 20260501154445 | 54 | 232 | 3.5 | 10.4 | 0.00 | 0.00 | 0.00 | 51 | 999.6 |
| 20260501154217 | 54 | 312 | 5.2 | 10.4 | 0.00 | 0.00 | 0.00 | 51 | 999.7 |
| 20260501153445 | 53 | 344 | 6.1 | 11.3 | 0.00 | 0.00 | 0.00 | 55 | 999.7 |